Flag for France Weather past 2 weeks in Taiohae, Marquesas Islands, France

Now
83 °F

Warm.


Feels Like: 87 °F
Forecast: 77 / 80 °F
Wind: 10 mph from Southeast

Location: Atuona

Current Time: Jul 29, 2014 at 4:30:28 PM

Latest Report: Jul 29, 2014 at 3:30 PM


Visibility: N/A

Pressure: 29.89 "Hg

Humidity: 67%

Dew point: 71 °F

Location of TaiohaeLocation

Historic Weather in Taiohae — Graph

°F

Taiohae temperature yesterday

Maximum temperature yesterday: 87 °F (at 12:30 PM)
Minimum temperature yesterday: 74 °F (at 10:30 PM)
Average temperature yesterday: 79 °F

Past Weeks' High & Low Weather Summary

 TemperatureHumidityPressure
High88 °F (Jul 29, 1:30 PM)93% (Jul 26, 8:30 AM)30.01 "Hg (Jul 26, 8:30 AM)
Low71 °F (Jul 23, 5:30 AM)53% (Jul 16, 10:30 AM)29.80 "Hg (Jul 21, 2:30 PM)
Average78 °F74%29.91 "Hg
* Reported Jul 14 3:30 PM — Jul 29 3:30 PM, Taiohae, Weather by CustomWeather, © 2014

Note: Actual official high and low records may vary slightly from our data, if they occured in-between our weather recording intervals... More about our weather records

Advertising

Taiohae weather history for previous 24 hours

 ConditionsComfort  
Time TempWeatherWind HumidityBarometerVisibility
3:30 PM
Jul 29
83 °FWarm.10 mph67%29.89 "HgN/A
2:30 PM87 °FWarm.7 mph61%29.90 "HgN/A
1:30 PM88 °FPassing clouds.7 mph62%29.91 "Hg28 mi
12:30 PM87 °FWarm.7 mph61%29.94 "HgN/A
11:30 AM86 °FScattered clouds.9 mph64%29.97 "Hg25 mi
10:30 AM87 °FScattered clouds.7 mph65%29.99 "Hg25 mi
9:30 AM83 °FScattered clouds.6 mph73%30.01 "Hg25 mi
8:30 AM82 °FScattered clouds.7 mph70%30.00 "Hg25 mi
7:30 AM77 °FScattered clouds.3 mph79%29.98 "Hg22 mi
6:30 AM73 °FMild.2 mph85%29.96 "HgN/A
5:30 AM73 °FMild.2 mph86%29.94 "HgN/A
4:30 AM73 °FMild.6 mph87%29.93 "HgN/A
3:30 AM74 °FMild.2 mph87%29.93 "HgN/A
2:30 AM74 °FMild.1 mph86%29.93 "HgN/A
1:30 AM75 °FMild.1 mph84%29.95 "HgN/A
12:30 AM75 °FMild.2 mph82%29.96 "HgN/A
11:30 PM
Jul 28
74 °FMild.2 mph84%29.97 "HgN/A
10:30 PM74 °FMild.1 mph83%29.97 "HgN/A
9:30 PM74 °FMild.3 mph82%29.97 "HgN/A
8:30 PM75 °FMild.3 mph81%29.97 "HgN/A
7:30 PM76 °FMild.2 mph78%29.96 "HgN/A
6:30 PM78 °FWarm.2 mph72%29.94 "HgN/A
5:30 PM79 °FWarm.8 mph66%29.92 "HgN/A
4:30 PM80 °FPassing clouds.9 mph61%29.90 "Hg22 mi
Weather by CustomWeather, © 2014

See weather overviewHow to use our weather pages